Location: Austin, TX
(30.3000°N, 97.7500°W)
Time: 14:05:42
(UTC-06:00)

Daily predictions for brighter satellites

Satellite Brightness Start Highest point End
(mag) Time Altitude Azimuth Time Altitude Azimuth Time Altitude Azimuth
Cosmos 389 Rocket 3.0 18:16:32 10° NNW 18:20:05 64° W 18:23:33 10° S
COSMOS 2441 4.4 18:15:39 10° SSE 18:20:28 64° ENE 18:25:17 10° N
Cosmos 2333 Rocket 2.2 18:17:17 10° SSW 18:22:54 80° ESE 18:28:33 10° NNE
CORIOLIS 4.3 18:21:15 10° S 18:26:36 80° WSW 18:31:57 10° NNW
Atlas Centaur 2 2.4 18:22:43 10° W 18:27:58 55° SSW 18:32:09 10° ESE
Cosmos 1743 Rocket 4.4 18:27:55 10° SSW 18:32:17 56° W 18:36:42 10° N
Cosmos 2219 Rocket 2.9 18:30:44 10° SSW 18:36:16 58° WNW 18:41:50 10° N
Cosmos 1340 Rocket 3.4 18:36:41 10° SSE 18:40:19 35° E 18:43:55 10° NNE
BREEZE-M DEB (TANK) 4.1 18:39:16 10° W 18:41:21 15° NW 18:42:52 10° N
MONITOR-E 4.4 18:38:33 10° S 18:41:42 75° W 18:44:52 10° NNW
Cosmos 2151 2.9 18:39:16 10° S 18:43:27 80° E 18:47:40 10° N
Cosmos 1328 Rocket 4.1 18:39:14 10° NNW 18:43:38 64° W 18:48:01 10° S
Cosmos 540 Rocket 3.5 18:39:16 10° SSW 18:44:26 90° WNW 18:49:37 10° NNE
Abrixas 3.0 18:42:08 10° WSW 18:45:00 50° NW 18:47:20 14° NE
Cosmos 2278 Rocket 2.7 18:42:32 10° N 18:47:44 36° ENE 18:52:55 10° SE
SL-14 R/B 3.3 18:45:08 10° S 18:49:01 86° W 18:52:57 10° N
Cosmos 783 Rocket 4.5 18:44:09 10° S 18:49:25 75° ESE 18:54:43 10° NNE
Cosmos 1515 Rocket 3.8 18:46:11 10° N 18:50:39 75° W 18:55:03 10° S
Cosmos 1626 3.2 18:48:01 10° SE 18:51:03 24° E 18:52:36 18° NE
Cosmos 1805 Rocket 4.0 18:47:35 10° SSE 18:51:42 39° E 18:55:50 10° NNE
USA 215 3.8 18:46:21 10° ESE 18:52:13 36° NE 18:58:05 10° NNW
SKYMED 2 4.4 18:49:19 10° N 18:53:32 52° WNW 18:57:44 10° SSW
Cosmos 1484 Rocket 3.4 18:50:18 10° S 18:54:07 60° W 18:58:01 10° NNW
Cosmos 1844 3.7 18:53:05 10° NNW 18:58:54 85° ENE 19:04:42 10° SSE
Cosmos 1151 Rocket 3.0 18:55:43 10° N 19:00:00 89° WSW 19:04:17 10° S
Haruka 3.5 18:57:53 10° W 19:01:45 85° N 19:09:16 19° E
NOAA 12 4.1 18:57:22 10° SSE 19:02:28 57° ENE 19:07:35 10° N
SEDSat Delta rocket 3.7 19:00:11 10° W 19:05:45 66° SSW 19:09:29 17° ESE
ALOS 3.1 19:02:57 10° SE 19:06:48 26° ENE 19:10:38 10° NNE
Cosmos 2237 Rocket 2.9 19:01:33 10° SW 19:07:00 53° WNW 19:12:31 10° N
Cosmos 1125 Rocket 3.4 19:02:43 10° NNW 19:07:55 75° ENE 19:13:05 10° SSE
Cosmos 1634 Rocket 4.4 19:02:14 10° NNW 19:08:19 64° W 19:14:23 10° S
SL-16 R/B 2.2 19:06:03 10° S 19:11:36 64° ESE 19:16:18 15° NNE
ATLAS 2A CENTAUR R/B 3.6 19:10:55 10° SE 19:11:11 10° SE 19:11:11 10° SE
Spot 2 Rocket 4.2 19:07:58 10° SE 19:12:16 29° ENE 19:16:33 10° NNE
Cosmos 1300 3.2 19:08:48 10° NNW 19:12:34 61° W 19:16:21 10° S
Cosmos 1726 2.9 19:10:36 10° NNW 19:14:17 54° W 19:17:57 10° S
Sich 1 3.3 19:11:23 10° SSE 19:15:38 47° E 19:17:57 24° NNE
BREEZE-M DEB (TANK) 2.7 19:14:22 10° W 19:15:43 30° NW 19:15:43 30° NW
Hubble Space Telescope 2.2 19:12:38 10° W 19:16:22 32° SSW 19:19:11 15° SE
Cosmos 1633 Rocket 3.3 19:14:35 10° SSE 19:18:46 44° E 19:20:05 34° NE
Cosmos 1538 Rocket 4.0 19:14:04 10° S 19:19:12 60° ESE 19:22:41 21° NNE
FREGAT/IRIS 2.4 19:16:12 10° SSE 19:19:13 67° ENE 19:20:09 40° N
OTV 4 1.9 19:18:43 10° NW 19:20:41 25° N 19:20:41 25° N
Lacrosse 5 rocket 3.5 19:18:59 10° N 19:19:24 12° N 19:19:24 12° N
Cosmos 2297 4.2 19:21:36 10° N 19:26:49 36° ENE 19:27:01 35° ENE
SL-19 R/B 4.4 19:21:41 10° SSE 19:27:39 57° ENE 19:33:15 10° N
Resurs 01 Rocket 3.8 19:24:08 10° SE 19:31:56 13° N 19:32:29 10° N
USA 229 DEB 3.9 19:22:45 10° S 19:29:14 48° ESE 19:31:47 34° ENE
USA 229 3.9 19:22:52 10° S 19:29:21 47° ESE 19:31:49 34° ENE
Cosmos 1184 Rocket 4.0 19:28:04 10° S 19:30:01 31° SSE 19:30:01 31° SSE
OAO 3 Rocket 3.8 19:29:27 10° WNW 19:34:12 53° SSW 19:36:25 28° SE
Helios 1B rocket 3.7 19:39:17 28° SSE 19:39:17 28° SSE 19:41:27 10° S
Centaur AC-119 2.8 19:40:25 10° WSW 19:42:54 47° SSE 19:42:54 47° SSE
Iridium 4 Rocket 3.1 19:40:30 10° S 19:44:58 65° ESE 19:44:58 65° ESE
SJ-6B 3.7 19:41:41 10° S 19:45:34 50° W 19:49:33 10° NNW
Cosmos 1461 3.7 19:41:44 10° SW 19:45:51 48° WNW 19:47:02 36° NNW
Cosmos 1707 Rocket 3.4 19:41:36 10° N 19:45:57 90° ESE 19:50:16 10° S
FengYun 1-2 T 4.1 19:43:22 10° SSE 19:48:57 80° ENE 19:54:30 10° N
Cosmos 1666 Rocket 4.1 19:46:06 10° SSW 19:50:20 56° W 19:52:39 25° NNW
H-2A ROCKET BODY 2.6 19:41:12 10° W 20:01:24 80° S 20:02:29 62° ESE
FENGYUN 3A 3.6 19:57:32 10° S 20:02:52 79° WSW 20:08:15 10° NNW
Cosmos 773 Rocket 4.2 20:05:11 10° SSW 20:10:15 64° WNW 20:10:33 63° NW
Cosmos 1603 4.2 20:10:05 10° SSW 20:14:05 48° S 20:14:05 48° S
Atlas Centaur 2 3.9 20:13:44 10° WSW 20:16:06 14° SSW 20:16:30 14° SSW
Cosmos 2278 Rocket 4.4 20:27:09 10° NW 20:31:30 23° W 20:35:52 10° SSW
USA 215 3.8 20:32:58 40° S 20:34:58 52° SW 20:41:21 10° NW
ALOS 4.5 20:40:28 10° SSW 20:44:07 23° W 20:47:46 10° NW
Milstar 3 4.0 20:51:03 10° W 20:57:23 39° SSW 20:57:25 39° SSW
